User: anonymous   Login
Location: Unspecified
(0.0000°N, 0.0000°E)
Time: 23:49:40
(UTC+00:00)
Language:

STARLINK-34460 - Orbit

View from above orbital plane
View from above orbital plane
View from above satellite
View from above satellite

Ground track
Ground track

The orbit is defined by the following mean orbital elements,

1 66099U          26145.33400495 +.00000000 +00000-0 +68678-3 0 00007
2 66099  53.1574 107.5497 0001292  76.5500 283.5645 15.30216227    09
Epoch (UTC): 25 May 2026 08:00:58
Eccentricity: 0.0001292
inclination: 53.1574°
perigee height: 474 km
apogee height: 476 km
right ascension of ascending node: 107.5497°
argument of perigee: 76.5500°
revolutions per day: 15.30216227
mean anomaly at epoch: 283.5645°

The dashed part of the orbit path shows where the satellite is in the earth's shadow,  

DLR